Weather History for Dumas, TX

Change the Weather History Date:

Saturday, January 19, 2013

  Actual Average (KBGD) Record (KBGD)
Temperature  
Mean Temperature 43 °F 39 °F  
Max Temperature 60 °F 52 °F 76 °F (1986)
Min Temperature 26 °F 26 °F -3 °F (1984)
Degree Days  
Heating Degree Days 22 26  
Month to date heating degree days 512  
Since 1 July heating degree days 2049  
Cooling Degree Days 0 0  
Month to date cooling degree days 0  
Year to date cooling degree days 0  
Moisture  
Dew Point 16 °F    
Average Humidity 42    
Maximum Humidity 74    
Minimum Humidity 15    
Precipitation  
Precipitation 0.00 in 0.02 in 1.19 in (1990)
Month to date precipitation 0.31  
Year to date precipitation 0.31  
Snow  
Snow 0.00 in - 4.50 in (1993)
Month to date snowfall  
Since 1 July snowfall  
Snow Depth -    
Sea Level Pressure  
Sea Level Pressure 30.17 in    
Wind  
Wind Speed 11 mph (NNW)    
Max Wind Speed 22 mph    
Max Gust Speed 31 mph    
Visibility 10 miles    
Events      
T = Trace of Precipitation, MM = Missing Value Source: NWS Daily Summary

Daily Weather History Graph

Daily Weather History Graph

Search for Another Location

Airport:

Trip Planner

Search our weather history database for the weather conditions in past years. The results will help you decide how hot, cold, wet, or windy it might be!

Date:

Astronomy

Jan. 19, 2013 Rise Set
Actual Time 7:56 AM CST 6:02 PM CST
Civil Twilight 7:28 AM CST 6:29 PM CST
Nautical Twilight 6:57 AM CST 7:00 PM CST
Astronomical Twilight 6:26 AM CST 7:31 PM CST
Moon 12:27 PM CST (1/19) 1:35 AM CST (1/19)
Length of Visible Light 11h 01m
Length of Day
10h 05m
First Quarter, 57% of the Moon is Illuminated
Jan 19
First Quarter
Jan 26
Full
Feb 3
Last Quarter
Feb 10
New
Feb 17
First Quarter

Hourly Weather History & Observations

Time (CST) Temp. Windchill Dew Point Humidity Pressure Visibility Wind Dir Wind Speed Gust Speed Precip Events Conditions
12:15 AM 33.8 °F 25.3 °F 21.2 °F 60% 30.08 in 10.0 mi SW 11.5 mph - N/A   Clear
12:35 AM 33.8 °F 25.8 °F 23.0 °F 65% 30.07 in 10.0 mi WSW 10.4 mph - N/A   Clear
12:55 AM 32.0 °F 23.6 °F 21.2 °F 64% 30.07 in 10.0 mi WSW 10.4 mph - N/A   Clear
1:15 AM 32.0 °F 24.2 °F 21.2 °F 64% 30.07 in 10.0 mi WSW 9.2 mph - N/A   Clear
1:35 AM 32.0 °F 24.2 °F 23.0 °F 69% 30.07 in 10.0 mi WSW 9.2 mph - N/A   Clear
1:55 AM 32.0 °F 23.6 °F 21.2 °F 64% 30.07 in 10.0 mi West 10.4 mph - N/A   Clear
2:15 AM 32.0 °F 23.6 °F 21.2 °F 64% 30.06 in 10.0 mi West 10.4 mph - N/A   Clear
2:35 AM 32.0 °F 23.0 °F 23.0 °F 69% 30.06 in 10.0 mi West 11.5 mph - N/A   Clear
2:55 AM 32.0 °F 24.2 °F 23.0 °F 69% 30.06 in 10.0 mi West 9.2 mph - N/A   Clear
3:15 AM 30.2 °F 22.6 °F 21.2 °F 69% 30.06 in 10.0 mi West 8.1 mph - N/A   Clear
3:35 AM 30.2 °F 21.9 °F 21.2 °F 69% 30.06 in 10.0 mi West 9.2 mph - N/A   Clear
3:55 AM 28.4 °F 20.4 °F 21.2 °F 74% 30.06 in 10.0 mi West 8.1 mph - N/A   Clear
4:15 AM 28.4 °F 19.7 °F 21.2 °F 74% 30.06 in 10.0 mi WSW 9.2 mph - N/A   Clear
4:35 AM 26.6 °F 17.5 °F 19.4 °F 74% 30.05 in 10.0 mi WSW 9.2 mph - N/A   Clear
4:55 AM 28.4 °F 20.4 °F 19.4 °F 69% 30.06 in 10.0 mi WNW 8.1 mph - N/A   Clear
5:15 AM 30.2 °F 23.4 °F 19.4 °F 64% 30.06 in 10.0 mi West 6.9 mph - N/A   Clear
5:35 AM 28.4 °F 20.4 °F 19.4 °F 69% 30.06 in 10.0 mi West 8.1 mph - N/A   Clear
5:55 AM 28.4 °F 20.4 °F 19.4 °F 69% 30.06 in 10.0 mi WNW 8.1 mph - N/A   Clear
7:15 AM 30.2 °F 21.9 °F 17.6 °F 60% 30.08 in 10.0 mi WNW 9.2 mph - N/A   Clear
7:55 AM 32.0 °F 23.6 °F 14.0 °F 48% 30.10 in 10.0 mi WNW 10.4 mph - N/A   Clear
8:15 AM 32.0 °F 23.6 °F 14.0 °F 48% 30.11 in 10.0 mi NW 10.4 mph - N/A   Clear
8:35 AM 32.0 °F 24.8 °F 14.0 °F 48% 30.12 in 10.0 mi NW 8.1 mph - N/A   Clear
9:35 AM 41.0 °F 33.5 °F 14.0 °F 33% 30.15 in 10.0 mi NNW 13.8 mph - N/A   Clear
9:55 AM 42.8 °F 35.8 °F 14.0 °F 31% 30.17 in 10.0 mi NNW 13.8 mph 19.6 mph N/A   Clear
10:15 AM 44.6 °F 37.2 °F 14.0 °F 29% 30.18 in 10.0 mi North 17.3 mph 20.7 mph N/A   Clear
10:35 AM 48.2 °F - 12.2 °F 24% 30.20 in 10.0 mi North 17.3 mph 26.5 mph N/A   Clear
11:15 AM 51.8 °F - 12.2 °F 21% 30.21 in 10.0 mi NNE 19.6 mph 28.8 mph N/A   Clear
11:35 AM 53.6 °F - 12.2 °F 19% 30.21 in 10.0 mi NNE 19.6 mph 25.3 mph N/A   Clear
11:55 AM 53.6 °F - 12.2 °F 19% 30.20 in 10.0 mi NNE 19.6 mph 26.5 mph N/A   Clear
12:15 PM 55.4 °F - 12.2 °F 18% 30.20 in 10.0 mi NNE 20.7 mph 28.8 mph N/A   Clear
12:35 PM 57.2 °F - 12.2 °F 17% 30.20 in 10.0 mi North 17.3 mph 27.6 mph N/A   Clear
12:55 PM 57.2 °F - 12.2 °F 17% 30.19 in 10.0 mi North 21.9 mph 26.5 mph N/A   Clear
1:15 PM 59.0 °F - 10.4 °F 15% 30.19 in 10.0 mi North 21.9 mph 31.1 mph N/A   Clear
1:35 PM 59.0 °F - 10.4 °F 15% 30.18 in 10.0 mi North 16.1 mph 25.3 mph N/A   Clear
1:55 PM 59.0 °F - 12.2 °F 16% 30.18 in 10.0 mi North 18.4 mph 23.0 mph N/A   Clear
2:15 PM 59.0 °F - 12.2 °F 16% 30.17 in 10.0 mi NNE 13.8 mph 20.7 mph N/A   Clear
2:35 PM 60.8 °F - 12.2 °F 15% 30.17 in 10.0 mi NNE 15.0 mph 21.9 mph N/A   Clear
2:55 PM 60.8 °F - 12.2 °F 15% 30.17 in 10.0 mi North 15.0 mph 20.7 mph N/A   Clear
3:15 PM 59.0 °F - 12.2 °F 16% 30.18 in 10.0 mi North 15.0 mph - N/A   Clear
3:35 PM 59.0 °F - 12.2 °F 16% 30.18 in 10.0 mi NNE 13.8 mph 18.4 mph N/A   Clear
3:55 PM 59.0 °F - 12.2 °F 16% 30.19 in 10.0 mi NNE 12.7 mph 19.6 mph N/A   Clear
4:15 PM 59.0 °F - 14.0 °F 17% 30.19 in 10.0 mi North 12.7 mph 17.3 mph N/A   Clear
4:35 PM 57.2 °F - 14.0 °F 18% 30.20 in 10.0 mi NNE 12.7 mph - N/A   Clear
4:55 PM 55.4 °F - 14.0 °F 20% 30.20 in 10.0 mi NNE 10.4 mph - N/A   Clear
5:15 PM 53.6 °F - 14.0 °F 21% 30.21 in 10.0 mi NNE 10.4 mph - N/A   Clear
5:35 PM 51.8 °F - 15.8 °F 24% 30.22 in 10.0 mi NE 6.9 mph - N/A   Clear
5:55 PM 50.0 °F - 15.8 °F 26% 30.22 in 10.0 mi NNE 5.8 mph - N/A   Clear
6:15 PM 46.4 °F 42.9 °F 15.8 °F 29% 30.22 in 10.0 mi NNE 6.9 mph - N/A   Clear
6:35 PM 46.4 °F 45.2 °F 15.8 °F 29% 30.24 in 10.0 mi NNE 3.5 mph - N/A   Clear
6:55 PM 44.6 °F - 15.8 °F 31% 30.24 in 10.0 mi Calm Calm - N/A   Clear
7:15 PM 44.6 °F 40.2 °F 17.6 °F 34% 30.24 in 10.0 mi ENE 8.1 mph - N/A   Clear
7:35 PM 44.6 °F 41.4 °F 17.6 °F 34% 30.25 in 10.0 mi NE 5.8 mph - N/A   Clear
7:55 PM 44.6 °F 40.7 °F 17.6 °F 34% 30.25 in 10.0 mi NE 6.9 mph - N/A   Clear
8:15 PM 39.2 °F 37.0 °F 15.8 °F 39% 30.26 in 10.0 mi North 3.5 mph - N/A   Clear
8:55 PM 37.4 °F 33.8 °F 15.8 °F 41% 30.27 in 10.0 mi North 4.6 mph - N/A   Clear
9:15 PM 37.4 °F 32.8 °F 17.6 °F 45% 30.27 in 10.0 mi ENE 5.8 mph - N/A   Clear
9:35 PM 32.0 °F - 15.8 °F 51% 30.27 in 10.0 mi Calm Calm - N/A   Clear
9:55 PM 33.8 °F 30.8 °F 17.6 °F 52% 30.27 in 10.0 mi NW 3.5 mph - N/A   Clear
10:15 PM 32.0 °F 28.7 °F 17.6 °F 55% 30.27 in 10.0 mi WNW 3.5 mph - N/A   Clear
10:35 PM 26.6 °F 21.2 °F 14.0 °F 59% 30.27 in 10.0 mi West 4.6 mph - N/A   Clear
10:55 PM 28.4 °F 21.2 °F 17.6 °F 64% 30.28 in 10.0 mi WSW 6.9 mph - N/A   Clear
11:15 PM 32.0 °F 27.5 °F 17.6 °F 55% 30.27 in 10.0 mi WSW 4.6 mph - N/A   Clear
11:35 PM 30.2 °F 25.4 °F 15.8 °F 55% 30.27 in 10.0 mi WSW 4.6 mph - N/A   Clear
11:55 PM 30.2 °F 24.3 °F 17.6 °F 60% 30.27 in 10.0 mi WSW 5.8 mph - N/A   Clear